Find Starlink 32513

NORAD ID: 61964 Int'l Des: 2024-210 Owner: SPXS Country: US Constellation: starlink operational
LEOCIRCULAR

Live Position

Loading 3D Globe...

About Starlink 32513

Description loading...

Upcoming Passes

Passes for default location (London). Set your location on the main map for personalized predictions.

Altitude History

Loading altitude history...

Two-Line Element Set

1 61964U 24210F 26125.48546203 .00023346 00000-0 85487-3 0 9996
2 61964 43.0016 204.5835 0001325 267.7095 92.3605 15.27592805 83769
Epoch: May 5, 2026 • Age: 9 hours

Current Status

Altitude 482.9 km
Velocity 7.63 km/s
Sub-Earth Point -1.34°S, 21.33°E
Launch Date Nov 14, 2024
Age 1.4 years
Type internet

Technical Details

Classification Payload
Mass 730.00 kg
Dry Mass 700.00 kg
Total Mass 730.00 kg
Length 0.30 m
Diameter 4.10 m
Span 29.00 m
Shape Box + pan
Manufacturer SPXS
Bus Type Starlink V2M
Phase Status In Orbit
Owner/State SPXS/US

Most Searched